{"data":{"norad_id":54850,"epoch":"2026-05-25T03:05:09.841632Z","epoch_age_seconds":67040,"freshness":"FRESH","line1":"1 54850U 22177AG  26145.12858613  .00000671  00000+0  33923-4 0  9990","line2":"2 54850  43.0068  49.6686 0001942 284.0951  75.9684 15.27575709188788","mean_motion":15.27575709,"eccentricity":0.0001942,"inclination_deg":43.0068,"raan_deg":49.6686,"arg_perigee_deg":284.0951,"mean_anomaly_deg":75.9684,"bstar":3.3923e-5,"rev_number":18878,"period_min":94.267013511407,"perigee_km":481.72950003232,"apogee_km":484.3943897025,"semimajor_km":6861.1989448674,"source":"CELESTRAK","updated_at":"2026-05-25T13:38:17.725503Z"}}